Time,TemperatureF,DewpointF,PressureIn,WindDirection,WindDirectionDegrees,WindSpeedMPH,WindSpeedGustMPH,Humidity,HourlyPrecipIn,Conditions,Clouds,dailyrainin,SoftwareType,DateUTC
2013-12-13 05:00:00,5.0,-99.9,30.21,NNW,340,20.0,-999.0,-999,-99.99,,,-99.99,,2013-12-13 05:00:00,
2013-12-13 05:43:00,5.0,-99.9,30.21,NNW,340,20.0,-999.0,-999,-99.99,,,-99.99,,2013-12-13 05:43:00,
2013-12-13 05:53:00,5.0,-99.9,30.21,NNW,340,20.0,-999.0,-999,-99.99,,,-99.99,,2013-12-13 05:53:00,
2013-12-13 06:00:00,1.0,-99.9,30.22,NW,320,17.0,-999.0,-999,-99.99,,,-99.99,,2013-12-13 06:00:00,
2013-12-13 06:43:00,1.0,-99.9,30.22,NW,320,17.0,-999.0,-999,-99.99,,,-99.99,,2013-12-13 06:43:00,
2013-12-13 06:52:00,1.0,-99.9,30.22,NW,320,17.0,-999.0,-999,-99.99,,,-99.99,,2013-12-13 06:52:00,
2013-12-13 07:00:00,-3.0,-99.9,30.23,East,80,7.0,-999.0,-999,-99.99,,,-99.99,,2013-12-13 07:00:00,
2013-12-13 07:42:00,-3.0,-99.9,30.23,East,80,7.0,-999.0,-999,-99.99,,,-99.99,,2013-12-13 07:42:00,
2013-12-13 07:52:00,-3.0,-99.9,30.23,East,80,7.0,-999.0,-999,-99.99,,,-99.99,,2013-12-13 07:52:00,
2013-12-13 08:00:00,-3.0,-99.9,30.25,NW,320,9.0,-999.0,-999,-99.99,,,-99.99,,2013-12-13 08:00:00,
2013-12-13 08:42:00,-3.0,-99.9,30.25,NW,320,9.0,-999.0,-999,-99.99,,,-99.99,,2013-12-13 08:42:00,
2013-12-13 08:53:00,-3.0,-99.9,30.25,NW,320,9.0,-999.0,-999,-99.99,,,-99.99,,2013-12-13 08:53:00,
2013-12-13 09:00:00,-4.0,-99.9,30.26,WSW,250,6.0,-999.0,-999,-99.99,,,-99.99,,2013-12-13 09:00:00,
2013-12-13 09:43:00,-4.0,-99.9,30.26,WSW,250,6.0,-999.0,-999,-99.99,,,-99.99,,2013-12-13 09:43:00,
2013-12-13 09:54:00,-4.0,-99.9,30.26,WSW,250,6.0,-999.0,-999,-99.99,,,-99.99,,2013-12-13 09:54:00,
2013-12-13 10:00:00,-5.0,-99.9,30.27,North,10,9.0,-999.0,-999,-99.99,,,-99.99,,2013-12-13 10:00:00,
2013-12-13 10:43:00,-5.0,-99.9,30.27,North,10,9.0,-999.0,-999,-99.99,,,-99.99,,2013-12-13 10:43:00,
2013-12-13 10:53:00,-5.0,-99.9,30.27,North,10,9.0,-999.0,-999,-99.99,,,-99.99,,2013-12-13 10:53:00,
2013-12-13 11:00:00,-5.0,-99.9,30.29,NW,310,8.0,-999.0,-999,-99.99,,,-99.99,,2013-12-13 11:00:00,
2013-12-13 11:43:00,-5.0,-99.9,30.29,NW,310,8.0,-999.0,-999,-99.99,,,-99.99,,2013-12-13 11:43:00,
2013-12-13 11:53:00,-5.0,-99.9,30.29,NW,310,8.0,-999.0,-999,-99.99,,,-99.99,,2013-12-13 11:53:00,
2013-12-13 12:00:00,-6.0,-99.9,30.31,NW,320,6.0,-999.0,-999,-99.99,,,-99.99,,2013-12-13 12:00:00,
2013-12-13 12:42:00,-6.0,-99.9,30.31,NW,320,6.0,-999.0,-999,-99.99,,,-99.99,,2013-12-13 12:42:00,
2013-12-13 12:53:00,-6.0,-99.9,30.31,NW,320,6.0,-999.0,-999,-99.99,,,-99.99,,2013-12-13 12:53:00,
2013-12-13 13:00:00,-7.0,-99.9,30.32,NNW,340,9.0,-999.0,-999,-99.99,,,-99.99,,2013-12-13 13:00:00,
2013-12-13 13:42:00,-7.0,-99.9,30.32,NNW,340,9.0,-999.0,-999,-99.99,,,-99.99,,2013-12-13 13:42:00,
2013-12-13 13:52:00,-7.0,-99.9,30.32,NNW,340,9.0,-999.0,-999,-99.99,,,-99.99,,2013-12-13 13:52:00,
2013-12-13 14:00:00,-8.0,-99.9,30.34,NNW,330,10.0,-999.0,-999,-99.99,,,-99.99,,2013-12-13 14:00:00,
2013-12-13 14:43:00,-8.0,-99.9,30.34,NNW,330,10.0,-999.0,-999,-99.99,,,-99.99,,2013-12-13 14:43:00,
2013-12-13 14:53:00,-8.0,-99.9,30.34,NNW,330,10.0,-999.0,-999,-99.99,,,-99.99,,2013-12-13 14:53:00,
2013-12-13 15:00:00,-7.0,-99.9,30.37,NW,320,9.0,-999.0,-999,-99.99,,,-99.99,,2013-12-13 15:00:00,
2013-12-13 15:44:00,-7.0,-99.9,30.37,NW,320,9.0,-999.0,-999,-99.99,,,-99.99,,2013-12-13 15:44:00,
2013-12-13 15:54:00,-7.0,-99.9,30.37,NW,320,9.0,-999.0,-999,-99.99,,,-99.99,,2013-12-13 15:54:00,
2013-12-13 16:00:00,-3.0,-99.9,30.40,NNW,340,3.0,-999.0,-999,-99.99,,,-99.99,,2013-12-13 16:00:00,
2013-12-13 16:43:00,-3.0,-99.9,30.40,NNW,340,3.0,-999.0,-999,-99.99,,,-99.99,,2013-12-13 16:43:00,
2013-12-13 16:53:00,-3.0,-99.9,30.40,NNW,340,3.0,-999.0,-999,-99.99,,,-99.99,,2013-12-13 16:53:00,
2013-12-13 17:00:00,-2.0,-99.9,30.40,NW,310,5.0,-999.0,-999,-99.99,,,-99.99,,2013-12-13 17:00:00,
2013-12-13 17:43:00,-2.0,-99.9,30.40,NW,310,5.0,-999.0,-999,-99.99,,,-99.99,,2013-12-13 17:43:00,
2013-12-13 17:53:00,-2.0,-99.9,30.40,NW,310,5.0,-999.0,-999,-99.99,,,-99.99,,2013-12-13 17:53:00,
2013-12-13 18:00:00,-3.0,-99.9,30.38,NW,320,8.0,-999.0,-999,-99.99,,,-99.99,,2013-12-13 18:00:00,
2013-12-13 18:42:00,-3.0,-99.9,30.38,NW,320,8.0,-999.0,-999,-99.99,,,-99.99,,2013-12-13 18:42:00,
2013-12-13 18:52:00,-3.0,-99.9,30.38,NW,320,8.0,-999.0,-999,-99.99,,,-99.99,,2013-12-13 18:52:00,
2013-12-13 20:00:00,3.0,-99.9,30.39,NW,310,6.0,-999.0,-999,-99.99,,,-99.99,,2013-12-13 20:00:00,
2013-12-13 20:42:00,3.0,-99.9,30.39,NW,310,6.0,-999.0,-999,-99.99,,,-99.99,,2013-12-13 20:42:00,
2013-12-13 20:53:00,3.0,-99.9,30.39,NW,310,6.0,-999.0,-999,-99.99,,,-99.99,,2013-12-13 20:53:00,
2013-12-13 21:00:00,2.0,-99.9,30.39,NNW,340,6.0,-999.0,-999,-99.99,,,-99.99,,2013-12-13 21:00:00,
2013-12-13 21:43:00,2.0,-99.9,30.39,NNW,340,6.0,-999.0,-999,-99.99,,,-99.99,,2013-12-13 21:43:00,
2013-12-13 21:53:00,2.0,-99.9,30.39,NNW,340,6.0,-999.0,-999,-99.99,,,-99.99,,2013-12-13 21:53:00,
2013-12-13 22:00:00,1.0,-99.9,30.40,NW,320,5.0,-999.0,-999,-99.99,,,-99.99,,2013-12-13 22:00:00,
2013-12-13 22:42:00,1.0,-99.9,30.40,NW,320,5.0,-999.0,-999,-99.99,,,-99.99,,2013-12-13 22:42:00,
2013-12-13 22:53:00,1.0,-99.9,30.40,NW,320,5.0,-999.0,-999,-99.99,,,-99.99,,2013-12-13 22:53:00,
2013-12-13 23:00:00,-3.0,-99.9,30.43,NW,310,7.0,-999.0,-999,-99.99,,,-99.99,,2013-12-13 23:00:00,
2013-12-13 23:43:00,-3.0,-99.9,30.43,NW,310,7.0,-999.0,-999,-99.99,,,-99.99,,2013-12-13 23:43:00,
2013-12-13 23:53:00,-3.0,-99.9,30.43,NW,310,7.0,-999.0,-999,-99.99,,,-99.99,,2013-12-13 23:53:00,